K4TH Weather Reports


time (UTC)temp
F
wind
direction
speed
knots
gust
knots
rain 1hr
in
rain 24hr
in
rain mn
in
humidity
%
barometer
mb
20260906132210 83 325 0.0 0.0 0.00 0.00 0.00 89 1012.3
20260906131706 82 327 0.0 0.9 0.00 0.00 0.00 88 1012.0
20260906131201 82 313 0.0 1.7 0.00 0.00 0.00 88 1012.3
20260906130656 82 175 0.9 0.9 0.00 0.00 0.00 89 1012.1
20260906130151 82 165 0.9 1.7 0.00 0.00 0.00 88 1012.1
20260906125649 82 175 1.7 2.6 0.00 0.00 0.00 90 1011.8
20260906125148 82 311 0.0 0.0 0.00 0.00 0.00 88 1012.2
20260906124643 82 310 0.0 0.0 0.00 0.00 0.00 88 1012.2
20260906124139 82 159 0.9 1.7 0.00 0.00 0.00 89 1012.1
20260906123637 82 181 0.0 0.9 0.00 0.00 0.00 89 1012.1
20260906123133 82 165 0.9 1.7 0.00 0.00 0.00 89 1012.0
20260906122632 81 172 0.9 2.6 0.00 0.00 0.00 90 1011.9
20260906122128 81 335 0.9 1.7 0.00 0.00 0.00 91 1012.2
20260906121623 81 179 0.9 1.7 0.00 0.00 0.00 90 1011.8
20260906121120 81 148 0.9 1.7 0.00 0.00 0.00 91 1011.7
20260906120616 81 164 0.9 1.7 0.00 0.00 0.00 91 1011.8
20260906120113 81 153 1.7 1.7 0.00 0.00 0.00 92 1011.8
20260906115612 79 356 0.0 0.0 0.00 0.00 0.00 93 1011.8
20260906115108 79 355 0.9 0.9 0.00 0.00 0.00 93 1011.9
20260906114608 79 355 0.0 0.0 0.00 0.00 0.00 94 1011.6
20260906114103 79 354 0.0 0.0 0.00 0.00 0.00 94 1011.9
20260906113602 79 354 0.0 0.9 0.00 0.00 0.00 94 1011.8
20260906113058 79 354 0.0 0.0 0.00 0.00 0.00 92 1012.0
20260906112557 79 354 0.0 0.0 0.00 0.00 0.00 93 1011.9
20260906112054 79 354 0.0 0.0 0.00 0.00 0.00 93 1011.7
20260906111553 79 354 0.0 0.0 0.00 0.00 0.00 93 1011.8
20260906111049 79 354 0.0 0.0 0.00 0.00 0.00 93 1011.8
20260906110548 79 354 0.0 0.0 0.00 0.00 0.00 93 1012.1
20260906110048 79 354 0.0 0.0 0.00 0.00 0.00 93 1012.0
20260906105543 79 354 0.0 0.0 0.00 0.00 0.00 93 1011.7
20260906105039 79 354 0.0 0.0 0.00 0.00 0.00 93 1011.8
20260906104538 79 354 0.0 0.0 0.00 0.00 0.00 93 1012.0
20260906104038 80 354 0.0 0.0 0.00 0.00 0.00 93 1011.7
20260906103536 80 354 0.0 0.0 0.00 0.00 0.00 93 1011.7
20260906103032 80 354 0.0 0.0 0.00 0.00 0.00 93 1011.8
20260906102532 80 354 0.0 0.0 0.00 0.00 0.00 94 1012.1
20260906102027 80 354 0.0 0.0 0.00 0.00 0.00 93 1012.1
20260906101527 80 354 0.0 0.0 0.00 0.00 0.00 93 1012.1
20260906101022 80 354 0.0 0.0 0.00 0.00 0.00 94 1012.2
20260906100517 80 354 0.0 0.0 0.00 0.00 0.00 94 1012.1
20260906100012 80 354 0.0 0.9 0.00 0.00 0.00 94 1012.3
20260906095507 81 354 0.0 0.0 0.00 0.00 0.00 94 1012.4
20260906095003 81 354 0.0 0.0 0.00 0.00 0.00 95 1012.0
20260906094501 80 354 0.0 0.0 0.00 0.00 0.00 95 1012.0
20260906093957 80 354 0.0 0.0 0.00 0.00 0.00 96 1011.9
20260906093454 80 354 0.0 0.0 0.00 0.00 0.00 97 1011.8
20260906092954 80 354 0.0 0.0 0.00 0.00 0.00 97 1011.7
20260906092453 80 354 0.0 0.0 0.00 0.00 0.00 97 1011.7
20260906091949 81 354 0.0 0.9 0.00 0.00 0.00 96 1011.6
20260906091444 81 354 0.0 0.0 0.00 0.00 0.00 96 1011.3
20260906090941 81 354 0.0 0.0 0.00 0.00 0.00 96 1011.3
20260906090436 81 354 0.0 0.0 0.00 0.00 0.00 95 1011.3
20260906085930 81 354 0.0 0.0 0.00 0.00 0.00 95 1011.1
20260906085429 81 354 0.0 0.0 0.00 0.00 0.00 95 1011.3
20260906084928 81 354 0.0 0.0 0.00 0.00 0.00 95 1011.2
20260906084424 81 354 0.0 0.0 0.00 0.00 0.00 96 1011.1
20260906083923 82 354 0.0 1.7 0.00 0.00 0.00 95 1011.0
20260906083418 81 354 0.0 0.0 0.00 0.00 0.00 95 1010.9
20260906082917 82 354 0.0 0.0 0.00 0.00 0.00 95 1011.1
20260906082413 82 354 0.0 0.9 0.00 0.00 0.00 94 1011.0
20260906081909 82 354 0.0 0.0 0.00 0.00 0.00 94 1011.1
20260906081404 82 354 0.0 0.0 0.00 0.00 0.00 94 1011.2
20260906080900 82 354 0.0 0.0 0.00 0.00 0.00 94 1011.1
20260906080357 82 354 0.0 0.0 0.00 0.00 0.00 94 1011.1
20260906075855 81 354 0.0 0.0 0.00 0.00 0.00 95 1011.0
20260906075350 81 354 0.0 0.0 0.00 0.00 0.00 95 1011.1
20260906074846 81 354 0.0 0.0 0.00 0.00 0.00 95 1011.0
20260906074346 81 354 0.0 0.0 0.00 0.00 0.00 95 1011.0
20260906073844 81 354 0.9 0.9 0.00 0.00 0.00 95 1010.9
20260906073339 81 354 0.0 0.0 0.00 0.00 0.00 96 1010.9
20260906072836 81 354 0.0 0.9 0.00 0.00 0.00 96 1011.0
20260906072332 81 354 0.0 0.0 0.00 0.00 0.00 96 1011.2
20260906071827 81 354 0.0 0.0 0.00 0.00 0.00 96 1010.8
20260906071328 81 354 0.0 0.0 0.00 0.00 0.00 96 1011.2
20260906070824 81 354 0.0 0.9 0.00 0.00 0.00 96 1011.0
20260906070320 81 355 0.9 0.9 0.00 0.00 0.00 95 1011.2
20260906065820 81 355 0.0 0.0 0.00 0.00 0.00 95 1011.1
20260906065315 81 355 0.0 0.0 0.00 0.00 0.00 95 1011.1
20260906064810 81 355 0.0 0.0 0.00 0.00 0.00 94 1011.1
20260906064307 81 355 0.0 0.0 0.00 0.00 0.00 94 1011.5
20260906063801 81 355 0.0 0.0 0.00 0.00 0.00 94 1011.2
20260906063256 82 355 0.0 0.0 0.00 0.00 0.00 94 1011.5
20260906062751 82 355 0.0 0.9 0.00 0.00 0.00 94 1011.2
20260906062251 82 163 0.0 0.0 0.00 0.00 0.00 94 1011.3
20260906061746 82 163 0.0 0.0 0.00 0.00 0.00 93 1011.2
20260906061243 82 163 0.0 0.0 0.00 0.00 0.00 94 1011.5
20260906060737 82 163 0.0 0.0 0.00 0.00 0.00 93 1011.4
20260906060235 82 163 0.0 0.9 0.00 0.00 0.00 93 1011.6
20260906055731 83 163 0.0 0.0 0.00 0.00 0.00 92 1011.7
20260906055226 83 165 0.0 0.0 0.00 0.00 0.00 91 1011.6
20260906054721 83 165 0.0 0.9 0.00 0.00 0.00 91 1011.6
20260906054216 83 164 0.0 1.7 0.00 0.00 0.00 91 1011.6
20260906053713 83 187 0.0 0.0 0.00 0.00 0.00 91 1011.3
20260906053208 83 187 0.0 0.0 0.00 0.00 0.00 92 1011.6
20260906052703 83 187 0.0 0.0 0.00 0.00 0.00 92 1011.5
20260906052159 83 187 0.0 0.0 0.00 0.00 0.00 91 1011.9
20260906051656 83 187 0.0 0.0 0.00 0.00 0.00 91 1011.7
20260906051155 84 187 0.0 0.0 0.00 0.00 0.00 91 1012.1
20260906050651 84 187 0.0 0.9 0.00 0.00 0.00 92 1012.0
20260906050146 84 191 0.0 0.0 0.00 0.00 0.00 91 1012.2
20260906045644 83 191 0.0 0.0 0.00 0.00 0.00 92 1011.8
20260906045139 84 191 0.0 0.0 0.00 0.00 0.00 91 1012.1
20260906044636 84 191 0.0 0.0 0.00 0.00 0.00 90 1012.0
20260906044131 84 190 0.0 0.0 0.00 0.00 0.00 90 1011.7
20260906043627 84 191 0.0 0.0 0.00 0.00 0.00 90 1011.8
20260906043122 84 190 0.0 0.0 0.00 0.00 0.00 90 1011.7
20260906042621 84 190 0.0 0.0 0.00 0.00 0.00 89 1011.7
20260906042116 84 190 0.0 0.0 0.00 0.00 0.00 90 1012.1
20260906041612 84 190 0.0 0.0 0.00 0.00 0.00 90 1012.0
20260906041112 84 190 0.0 0.0 0.00 0.00 0.00 90 1012.1
20260906040607 84 190 0.0 0.0 0.00 0.00 0.00 89 1011.9
20260906035558 84 190 0.0 0.0 0.00 0.00 0.00 89 1012.0
20260906035054 84 190 0.0 0.0 0.00 0.00 0.00 89 1012.1
20260906034554 84 190 0.0 0.0 0.00 0.00 0.00 89 1012.1
20260906034049 84 190 0.0 0.0 0.00 0.00 0.00 89 1011.6
20260906033544 84 190 0.0 0.0 0.00 0.00 0.00 89 1011.8
20260906033039 84 190 0.0 0.0 0.00 0.00 0.00 88 1012.0
20260906032536 84 190 0.0 0.0 0.00 0.00 0.00 88 1012.2
20260906032030 85 190 0.0 0.9 0.00 0.00 0.00 88 1012.1
20260906031526 85 190 0.0 0.0 0.00 0.00 0.00 87 1011.9
20260906031021 86 190 0.0 0.0 0.00 0.00 0.00 86 1012.1
20260906030521 86 190 0.0 0.0 0.00 0.00 0.00 85 1011.9
20260906030020 86 190 0.0 0.0 0.00 0.00 0.00 85 1011.6
20260906025520 86 190 0.0 0.9 0.00 0.00 0.00 85 1012.0
20260906025018 86 190 0.0 0.0 0.00 0.00 0.00 84 1011.9
20260906024514 86 190 0.0 0.9 0.00 0.00 0.00 85 1012.0
20260906024014 87 190 0.0 0.9 0.00 0.00 0.00 84 1011.9
20260906023510 87 174 0.9 2.6 0.00 0.00 0.00 85 1012.0
20260906023004 87 190 0.9 2.6 0.00 0.00 0.00 85 1011.9
20260906022500 87 194 0.9 1.7 0.00 0.00 0.00 83 1011.9
20260906021955 87 223 0.0 0.0 0.00 0.00 0.00 83 1011.5
20260906021450 87 247 0.9 1.7 0.00 0.00 0.00 84 1011.6
20260906020944 87 254 0.0 0.0 0.00 0.00 0.00 84 1011.6
20260906020439 87 254 0.0 0.0 0.00 0.00 0.00 82 1011.4
20260906015933 87 259 0.0 0.0 0.00 0.00 0.00 85 1011.4
20260906015432 87 259 0.0 0.0 0.00 0.00 0.00 83 1011.3
20260906014932 87 260 0.0 0.0 0.00 0.00 0.00 82 1011.3
20260906014432 88 259 0.0 0.0 0.00 0.00 0.00 82 1011.0
20260906013928 88 259 0.0 0.0 0.00 0.00 0.00 81 1010.9
20260906013424 88 259 0.0 0.9 0.00 0.00 0.00 81 1010.6
20260906012919 88 260 0.0 0.0 0.00 0.00 0.00 80 1010.6
20260906012419 88 259 0.0 0.0 0.00 0.00 0.00 79 1010.7
20260906011918 89 260 0.0 0.9 0.00 0.00 0.00 79 1010.8
20260906011414 89 260 0.0 0.9 0.00 0.00 0.00 78 1010.6
20260906010909 89 253 0.0 0.0 0.00 0.00 0.00 79 1010.7
20260906010405 89 254 0.0 0.9 0.00 0.00 0.00 77 1010.3
20260906005901 89 250 0.0 0.9 0.00 0.00 0.00 77 1010.2
20260906005400 89 208 0.9 0.9 0.00 0.00 0.00 78 1009.8
20260906004858 89 268 0.0 1.7 0.00 0.00 0.00 76 1009.8
20260906004353 89 212 0.0 1.7 0.00 0.00 0.00 78 1009.5
20260906003848 89 154 0.0 0.9 0.00 0.00 0.00 76 1009.6
20260906003344 89 209 0.0 0.9 0.00 0.00 0.00 77 1009.5
20260906002839 89 209 0.0 0.0 0.00 0.00 0.00 75 1009.8
20260906002338 89 209 0.0 0.0 0.00 0.00 0.00 75 1009.7
20260906001834 90 209 0.0 0.0 0.00 0.00 0.00 74 1010.1
20260906001329 89 209 0.0 0.0 0.00 0.00 0.00 73 1009.9
20260906000825 90 209 0.0 0.0 0.00 0.00 0.00 73 1009.8
20260906000319 90 209 0.9 0.9 0.00 0.00 0.00 72 1010.1
20260905235819 90 219 0.0 0.9 0.00 0.00 0.00 72 1010.1
20260905235314 90 192 0.9 1.7 0.00 0.00 0.00 73 1010.0
20260905234809 91 162 1.7 2.6 0.00 0.00 0.00 72 1010.1
20260905234304 92 156 1.7 1.7 0.00 0.00 0.00 73 1010.1
20260905233800 92 196 0.0 0.9 0.00 0.00 0.00 70 1009.8
20260905233300 92 181 0.9 2.6 0.00 0.00 0.00 68 1010.0
20260905232759 92 201 0.9 2.6 0.00 0.00 0.00 69 1009.8
20260905232255 92 196 0.9 3.5 0.00 0.00 0.00 68 1010.1
20260905231751 92 187 1.7 3.5 0.00 0.00 0.00 69 1010.0
20260905231246 92 154 4.3 5.2 0.00 0.00 0.00 70 1010.0
20260905230742 95 168 3.5 6.1 0.00 0.00 0.00 73 1010.2
20260905230240 95 284 0.0 1.7 0.00 0.00 0.00 67 1009.9
20260905225739 95 73 0.0 0.9 0.00 0.00 0.00 68 1009.8
20260905225235 95 158 0.9 1.7 0.00 0.00 0.00 66 1009.8
20260905224733 96 155 1.7 2.6 0.00 0.00 0.00 65 1009.5
20260905224230 95 141 3.5 5.2 0.00 0.00 0.00 62 1009.5
20260905223726 96 162 0.0 0.0 0.00 0.00 0.00 60 1009.4
20260905223222 96 162 0.0 0.0 0.00 0.00 0.00 55 1009.4
20260905222718 97 162 0.0 0.0 0.00 0.00 0.00 55 1009.4
20260905222216 97 162 0.0 0.0 0.00 0.00 0.00 52 1009.5
20260905221713 97 161 0.0 1.7 0.00 0.00 0.00 54 1009.2
20260905221209 97 162 0.0 0.0 0.00 0.00 0.00 56 1009.3
20260905220705 98 162 0.0 0.0 0.00 0.00 0.00 57 1009.4
20260905220201 98 171 1.7 2.6 0.00 0.00 0.00 58 1009.4
20260905215700 98 285 0.0 0.0 0.00 0.00 0.00 51 1009.7
20260905215156 98 174 1.7 1.7 0.00 0.00 0.00 52 1009.3
20260905214652 98 191 0.0 0.0 0.00 0.00 0.00 51 1009.5
20260905214147 98 196 0.0 0.9 0.00 0.00 0.00 51 1009.5
20260905213642 98 206 0.9 1.7 0.00 0.00 0.00 54 1009.7
20260905213137 98 174 0.9 1.7 0.00 0.00 0.00 54 1009.8
20260905212633 98 230 0.9 0.9 0.00 0.00 0.00 53 1009.4
20260905212132 98 317 0.0 0.9 0.00 0.00 0.00 56 1009.7
20260905211627 98 266 0.9 0.9 0.00 0.00 0.00 52 1009.7
20260905211122 98 299 0.0 0.0 0.00 0.00 0.00 51 1009.8
20260905210619 98 160 1.7 1.7 0.00 0.00 0.00 56 1009.7
20260905210113 98 178 1.7 1.7 0.00 0.00 0.00 55 1009.7
20260905205613 98 284 0.0 0.9 0.00 0.00 0.00 54 1009.8
20260905205112 98 310 0.0 0.9 0.00 0.00 0.00 52 1010.0
20260905204612 98 294 0.0 0.0 0.00 0.00 0.00 52 1009.9
20260905204108 98 304 0.0 0.9 0.00 0.00 0.00 54 1009.9
20260905203608 98 198 0.0 1.7 0.00 0.00 0.00 53 1010.0
20260905203103 98 160 1.7 1.7 0.00 0.00 0.00 57 1010.1
20260905202558 98 189 1.7 3.5 0.00 0.00 0.00 53 1010.2
20260905202054 98 267 0.9 0.9 0.00 0.00 0.00 55 1010.0
20260905201549 98 169 2.6 2.6 0.00 0.00 0.00 54 1010.0
20260905201049 97 182 0.9 3.5 0.00 0.00 0.00 54 1010.1
20260905200544 98 191 3.5 5.2 0.00 0.00 0.00 53 1010.2
20260905200044 98 153 0.9 2.6 0.00 0.00 0.00 56 1010.2
20260905195538 98 176 0.9 3.5 0.00 0.00 0.00 52 1010.3
20260905195033 97 192 0.9 2.6 0.00 0.00 0.00 52 1010.3
20260905194533 97 304 0.0 1.7 0.00 0.00 0.00 55 1010.5
20260905194032 97 162 0.0 3.5 0.00 0.00 0.00 55 1010.7
20260905193527 97 205 1.7 1.7 0.00 0.00 0.00 55 1010.8
20260905193023 97 178 0.9 2.6 0.00 0.00 0.00 55 1010.7
20260905192518 97 167 1.7 2.6 0.00 0.00 0.00 58 1010.7
20260905192015 97 183 0.9 3.5 0.00 0.00 0.00 56 1010.8
20260905191513 97 155 1.7 1.7 0.00 0.00 0.00 57 1011.0
20260905191012 97 162 0.9 1.7 0.00 0.00 0.00 55 1011.0
20260905190510 96 242 0.9 2.6 0.00 0.00 0.00 56 1011.2
20260905190004 96 184 0.9 2.6 0.00 0.00 0.00 58 1011.1
20260905185459 97 168 1.7 2.6 0.00 0.00 0.00 59 1011.3
20260905184957 96 209 0.9 1.7 0.00 0.00 0.00 57 1011.4
20260905184453 96 193 1.7 2.6 0.00 0.00 0.00 57 1011.5
20260905183951 96 183 1.7 1.7 0.00 0.00 0.00 57 1011.6
20260905183450 96 167 2.6 2.6 0.00 0.00 0.00 57 1011.7
20260905182945 96 176 2.6 2.6 0.00 0.00 0.00 58 1011.6
20260905182445 96 167 3.5 3.5 0.00 0.00 0.00 59 1011.8
20260905181941 96 161 2.6 5.2 0.00 0.00 0.00 60 1011.8
20260905181441 96 180 1.7 2.6 0.00 0.00 0.00 63 1012.0
20260905180940 96 198 0.9 1.7 0.00 0.00 0.00 59 1012.0
20260905180435 96 189 0.9 1.7 0.00 0.00 0.00 62 1012.1
20260905175930 96 176 1.7 5.2 0.00 0.00 0.00 60 1012.3
20260905175424 96 300 0.0 1.7 0.00 0.00 0.00 59 1012.3
20260905174919 96 172 2.6 3.5 0.00 0.00 0.00 60 1012.5
20260905174415 95 171 1.7 2.6 0.00 0.00 0.00 64 1012.5
20260905173910 95 174 0.9 3.5 0.00 0.00 0.00 64 1012.7
20260905173407 95 236 0.0 2.6 0.00 0.00 0.00 63 1012.7
20260905172906 95 169 1.7 3.5 0.00 0.00 0.00 67 1012.6
20260905172404 95 168 1.7 2.6 0.00 0.00 0.00 68 1012.8
20260905171900 94 163 2.6 2.6 0.00 0.00 0.00 67 1013.0
20260905171357 94 161 1.7 2.6 0.00 0.00 0.00 69 1013.0
20260905170853 94 166 1.7 3.5 0.00 0.00 0.00 66 1013.2
20260905170349 94 201 0.9 3.5 0.00 0.00 0.00 66 1012.8
20260905165848 94 270 0.9 1.7 0.00 0.00 0.00 68 1012.9
20260905165344 94 189 0.9 2.6 0.00 0.00 0.00 65 1013.2
20260905164843 94 164 2.6 2.6 0.00 0.00 0.00 66 1013.2
20260905164339 94 150 1.7 5.2 0.00 0.00 0.00 70 1013.5
20260905163835 94 186 1.7 3.5 0.00 0.00 0.00 68 1013.5
20260905163331 94 162 3.5 3.5 0.00 0.00 0.00 69 1013.6
20260905162827 95 181 0.9 1.7 0.00 0.00 0.00 67 1013.3
20260905162326 94 185 1.7 1.7 0.00 0.00 0.00 65 1013.4
20260905161821 95 183 0.9 1.7 0.00 0.00 0.00 67 1013.6
20260905161320 94 341 0.0 0.9 0.00 0.00 0.00 66 1013.5
20260905160818 94 50 0.9 0.9 0.00 0.00 0.00 70 1013.5
20260905160313 93 267 0.9 1.7 0.00 0.00 0.00 71 1013.1
20260905155808 93 174 1.7 2.6 0.00 0.00 0.00 73 1013.4
20260905155307 92 167 0.0 1.7 0.00 0.00 0.00 73 1013.3
20260905154807 93 235 0.9 1.7 0.00 0.00 0.00 75 1013.4
20260905154302 92 161 0.9 1.7 0.00 0.00 0.00 75 1013.5
20260905153758 91 158 0.0 2.6 0.00 0.00 0.00 75 1013.5
20260905153254 91 163 0.0 2.6 0.00 0.00 0.00 77 1013.6
20260905152749 89 176 0.9 1.7 0.00 0.00 0.00 81 1013.4
20260905152248 89 184 0.9 2.6 0.00 0.00 0.00 80 1013.3
20260905151748 89 158 1.7 2.6 0.00 0.00 0.00 80 1013.5
20260905151244 89 166 2.6 2.6 0.00 0.00 0.00 80 1013.8
20260905150743 88 165 0.9 2.6 0.00 0.00 0.00 82 1013.9
20260905150243 88 175 0.9 2.6 0.00 0.00 0.00 82 1013.6
20260905145741 87 158 2.6 2.6 0.00 0.00 0.00 84 1013.8
20260905145236 88 166 1.7 2.6 0.00 0.00 0.00 83 1013.9
20260905144734 87 172 0.9 1.7 0.00 0.00 0.00 83 1013.7
20260905144230 87 167 1.7 1.7 0.00 0.00 0.00 84 1013.9
20260905143729 86 164 1.7 2.6 0.00 0.00 0.00 86 1013.8
20260905143229 86 152 2.6 2.6 0.00 0.00 0.00 86 1013.8
20260905142727 86 173 0.9 2.6 0.00 0.00 0.00 86 1013.7
20260905142222 85 162 1.7 2.6 0.00 0.00 0.00 88 1014.0
20260905141718 84 163 1.7 1.7 0.00 0.00 0.00 88 1013.9
20260905141214 84 162 0.9 1.7 0.00 0.00 0.00 88 1014.0
20260905140709 84 160 0.9 1.7 0.00 0.00 0.00 90 1014.0
20260905140209 83 158 0.9 0.9 0.00 0.00 0.00 90 1014.1
20260905135703 83 157 0.9 2.6 0.00 0.00 0.00 91 1014.0
20260905135200 83 150 0.9 1.7 0.00 0.00 0.00 90 1014.2
20260905134658 83 95 1.7 1.7 0.00 0.00 0.00 92 1014.1
20260905134158 83 80 0.9 1.7 0.00 0.00 0.00 91 1014.2
20260905133653 82 338 1.7 1.7 0.00 0.00 0.00 93 1014.1
20260905133154 82 338 0.0 0.0 0.00 0.00 0.00 92 1014.1
20260905132653 82 338 0.0 0.0 0.00 0.00 0.00 92 1014.2